N4EWE-13 Weather Reports


time (UTC)temp
F
wind
direction
speed
knots
gust
knots
rain 1hr
in
rain 24hr
in
rain mn
in
humidity
%
barometer
mb
20260505124052 60 214 1.7 6.1 0.00 0.00 0.00 81 1017.3
20260505123054 58 281 2.6 5.2 0.00 0.00 0.00 84 1017.3
20260505122039 57 246 0.9 5.2 0.00 0.00 0.00 86 1017.2
20260505121100 56 173 0.9 3.5 0.00 0.00 0.00 87 1017.3
20260505115114 54 249 0.0 1.7 0.00 0.00 0.00 87 1017.1
20260505114032 54 243 0.0 0.9 0.00 0.00 0.00 87 1017.1
20260505113036 54 265 0.0 0.0 0.00 0.00 0.00 86 1017.1
20260505112057 53 265 0.0 0.0 0.00 0.00 0.00 86 1017.1
20260505111053 53 260 0.0 0.9 0.00 0.00 0.00 85 1016.8
20260505102052 54 254 0.0 0.9 0.00 0.00 0.00 82 1016.3
20260505101113 54 254 0.0 0.9 0.00 0.00 0.00 81 1016.3
20260505100037 55 243 0.0 0.0 0.00 0.00 0.00 80 1016.3
20260505095041 55 243 0.0 0.9 0.00 0.00 0.00 80 1016.0
20260505094051 55 243 0.0 0.9 0.00 0.00 0.00 79 1016.0
20260505093028 56 243 0.0 0.9 0.00 0.00 0.00 79 1015.8
20260505092052 56 243 0.0 0.9 0.00 0.00 0.00 79 1015.8
20260505091110 56 241 0.0 1.7 0.00 0.00 0.00 79 1015.7
20260505090053 56 233 0.0 0.9 0.00 0.00 0.00 78 1015.8
20260505085048 57 232 0.0 1.7 0.00 0.00 0.00 78 1015.7
20260505084027 57 242 0.0 0.9 0.00 0.00 0.00 77 1015.5
20260505083052 57 243 0.0 1.7 0.00 0.00 0.00 77 1015.8
20260505082048 57 219 0.0 1.7 0.00 0.00 0.00 76 1015.6
20260505081128 58 232 0.0 2.6 0.00 0.00 0.00 75 1015.6
20260505080112 58 243 0.0 0.9 0.00 0.00 0.00 75 1015.5
20260505075047 59 229 0.0 1.7 0.00 0.00 0.00 74 1015.5
20260505074047 59 226 0.0 0.9 0.00 0.00 0.00 74 1015.5
20260505073042 59 218 0.0 0.9 0.00 0.00 0.00 73 1015.4
20260505072037 60 212 0.0 0.9 0.00 0.00 0.00 73 1015.3
20260505071057 60 196 0.9 1.7 0.00 0.00 0.00 72 1015.5
20260505070032 60 251 0.0 2.6 0.00 0.00 0.00 71 1015.3
20260505065026 61 265 0.9 2.6 0.00 0.00 0.00 71 1015.3
20260505064026 61 223 0.9 2.6 0.00 0.00 0.00 70 1015.3
20260505063053 61 223 0.0 2.6 0.00 0.00 0.00 70 1015.3
20260505062027 62 257 0.9 4.3 0.00 0.00 0.00 69 1015.2
20260505061106 62 220 1.7 3.5 0.00 0.00 0.00 69 1015.3
20260505060042 62 220 1.7 3.5 0.00 0.00 0.00 69 1015.3
20260505055037 62 207 0.9 3.5 0.00 0.00 0.00 68 1015.3
20260505054040 63 250 1.7 4.3 0.00 0.00 0.00 68 1015.3
20260505053038 63 254 1.7 5.2 0.00 0.00 0.00 67 1015.4
20260505052052 63 246 2.6 7.0 0.00 0.00 0.00 67 1015.4
20260505051102 63 123 0.9 6.1 0.00 0.00 0.00 67 1015.3
20260505041101 65 144 1.7 5.2 0.00 0.00 0.00 65 1015.2
20260505040056 65 310 1.7 6.1 0.00 0.00 0.00 64 1015.2
20260505035025 65 271 1.7 5.2 0.00 0.00 0.00 64 1015.2
20260505034049 66 258 2.6 6.1 0.00 0.00 0.00 64 1015.2
20260505033026 66 192 1.7 6.1 0.00 0.00 0.00 63 1015.2
20260505032053 66 227 1.7 6.1 0.00 0.00 0.00 62 1015.2
20260505031110 67 270 2.6 4.3 0.00 0.00 0.00 61 1015.3
20260505030026 67 194 1.7 7.8 0.00 0.00 0.00 61 1015.2
20260505025053 67 288 2.6 7.8 0.00 0.00 0.00 60 1015.2
20260505024058 67 269 2.6 7.0 0.00 0.00 0.00 57 1015.2
20260505023038 67 256 0.9 3.5 0.00 0.00 0.00 54 1015.0
20260505022046 67 249 1.7 6.1 0.00 0.00 0.00 52 1015.0
20260505021058 67 186 0.9 2.6 0.00 0.00 0.00 50 1014.9
20260505020043 67 267 0.9 2.6 0.00 0.00 0.00 50 1014.9
20260505015051 68 252 0.9 2.6 0.00 0.00 0.00 49 1014.7
20260505014027 68 195 0.0 2.6 0.00 0.00 0.00 49 1014.6
20260505013034 68 227 0.0 2.6 0.00 0.00 0.00 48 1014.5
20260505012041 68 287 0.0 1.7 0.00 0.00 0.00 47 1014.3
20260505011101 69 298 0.0 0.9 0.00 0.00 0.00 47 1014.3
20260505010037 69 292 0.0 0.9 0.00 0.00 0.00 47 1014.1
20260505005045 70 250 0.0 1.7 0.00 0.00 0.00 46 1014.0
20260505004026 70 221 0.0 0.9 0.00 0.00 0.00 44 1014.0
20260505003048 71 221 0.0 2.6 0.00 0.00 0.00 43 1013.9
20260505002027 72 236 0.0 0.0 0.00 0.00 0.00 44 1013.9
20260505001048 73 236 0.0 0.0 0.00 0.00 0.00 41 1013.7
20260505000049 74 236 0.0 0.0 0.00 0.00 0.00 40 1013.7
20260504235028 75 236 0.0 0.9 0.00 0.00 0.00 40 1013.5
20260504234036 76 222 0.0 0.9 0.00 0.00 0.00 38 1013.5
20260504233034 76 171 0.0 2.6 0.00 0.00 0.00 37 1013.4
20260504232028 76 307 0.0 1.7 0.00 0.00 0.00 36 1013.5
20260504231107 77 312 1.7 3.5 0.00 0.00 0.00 36 1013.4
20260504230038 78 269 0.9 5.2 0.00 0.00 0.00 34 1013.4
20260504225032 78 246 0.9 5.2 0.00 0.00 0.00 34 1013.4
20260504224042 79 121 1.7 5.2 0.00 0.00 0.00 33 1013.5
20260504223041 80 333 1.7 4.3 0.00 0.00 0.00 32 1013.5
20260504222036 80 220 0.9 7.0 0.00 0.00 0.00 33 1013.5
20260504221056 80 315 2.6 5.2 0.00 0.00 0.00 33 1013.5
20260504220032 81 246 3.5 7.8 0.00 0.00 0.00 31 1013.3
20260504215055 81 198 2.6 6.1 0.00 0.00 0.00 31 1013.4
20260504214036 82 265 1.7 5.2 0.00 0.00 0.00 31 1013.5
20260504213033 82 167 1.7 6.1 0.00 0.00 0.00 32 1013.5
20260504212029 82 219 1.7 8.7 0.00 0.00 0.00 31 1013.5
20260504211111 83 234 1.7 3.5 0.00 0.00 0.00 30 1013.6
20260504210045 83 275 2.6 7.0 0.00 0.00 0.00 31 1013.5
20260504205041 82 215 2.6 7.0 0.00 0.00 0.00 31 1013.7
20260504204042 82 261 1.7 5.2 0.00 0.00 0.00 32 1013.6
20260504203039 82 203 3.5 7.8 0.00 0.00 0.00 31 1013.8
20260504202035 82 259 2.6 7.0 0.00 0.00 0.00 32 1013.9
20260504201055 82 180 0.9 4.3 0.00 0.00 0.00 31 1014.0
20260504200050 82 294 3.5 7.8 0.00 0.00 0.00 31 1014.0
20260504195046 82 34 1.7 6.1 0.00 0.00 0.00 32 1014.0
20260504194045 82 74 3.5 9.6 0.00 0.00 0.00 32 1014.3
20260504193041 82 279 1.7 7.0 0.00 0.00 0.00 32 1014.4
20260504192041 81 167 1.7 7.0 0.00 0.00 0.00 33 1014.6
20260504191114 81 324 2.6 7.0 0.00 0.00 0.00 33 1014.5
20260504190052 81 321 3.5 7.8 0.00 0.00 0.00 33 1014.6
20260504185028 80 293 1.7 7.8 0.00 0.00 0.00 33 1014.6
20260504184051 80 50 2.6 6.1 0.00 0.00 0.00 32 1014.6
20260504183047 80 261 1.7 6.1 0.00 0.00 0.00 32 1014.8
20260504182051 80 174 1.7 5.2 0.00 0.00 0.00 33 1014.9
20260504181130 80 140 1.7 8.7 0.00 0.00 0.00 33 1015.1
20260504180043 80 326 1.7 7.0 0.00 0.00 0.00 32 1015.2
20260504175040 79 239 1.7 6.1 0.00 0.00 0.00 31 1015.3
20260504174042 79 214 2.6 6.1 0.00 0.00 0.00 34 1015.4
20260504173034 78 252 1.7 7.8 0.00 0.00 0.00 33 1015.4
20260504172029 78 231 2.6 6.1 0.00 0.00 0.00 34 1015.4
20260504171055 77 173 2.6 8.7 0.00 0.00 0.00 34 1015.6
20260504151048 69 267 2.6 6.1 0.00 0.00 0.00 50 1016.7
20260504150112 68 302 1.7 5.2 0.00 0.00 0.00 52 1016.6
20260504141101 60 243 1.7 7.0 0.00 0.00 0.00 72 1017.0